Regional Weather Roundup
Issued by NWS Sterling, VA

Home | Current Version | Previous Version | Graphics & Text | Print | Product List | Glossary On
Versions: 1 2 3 4 5 6 7 8 9 10 11 12 13 14 15 16 17 18 19 20 21 22 23 24 25 26 27 28 29 30 31 32 33 34 35 36 37 38 39 40 41 42 43 44 45 46 47 48 49 50
000
ASUS41 KLWX 231611
RWRLWX

REGIONAL WEATHER ROUNDUP
NATIONAL WEATHER SERVICE BALTIMORE MD/WASHINGTON DC
1100 AM EST FRI FEB 23 2018

Note: "FAIR" indicates few or no clouds below 12,000 feet
with no significant weather and/or obstructions to visibility.
 TC=TEMPERATURE CELSIUS

 * =Non NWS site. Station does not report precipitation (e.g. rain,
    snow, etc.), thunder, or fog.

DCZ001-MDZ009-015-VAZ040>042-051-053>054-231700-
WASHINGTON METRO

CITY           SKY/WX    TMP DP  RH WIND       PRES   REMARKS
WASHINGTON NAT CLOUDY    43  40  89 E7        30.56F
DULLES         CLOUDY    41  40  96 SE7       30.54F FOG
ANDREWS AFB    CLOUDY    41  40  94 E7        30.53F
FT BELVOIR     CLOUDY    42  39  89 CALM      30.55F
QUANTICO       CLOUDY    44  42  93 CALM      30.56F
COLLEGE PARK*  CLOUDY    40  38  92 CALM      30.55F
LEESBURG*      CLOUDY    37  37 100 SE8       30.54F FOG     WCI  31
MANASSAS*      LGT RAIN  42  41  96 E5        30.55F FOG
GAITHERSBURG*  CLOUDY    40  38  93 SE9       30.53F WCI  34

$$

MDZ006>007-011-014-231700-
BALTIMORE METRO

CITY           SKY/WX    TMP DP  RH WIND       PRES   REMARKS
BWI AIRPORT    DRZL/FOG  41  41 100 E6        30.54F VSB 1
MD SCIENCE CTR   N/A     42  40  92 MISG      30.56F
MARTIN STATE   FOG       43  43 100 CALM      30.58F VSB 1
ANNAPOLIS      CLOUDY    43  42  97 NE3       30.55F FOG
FORT MEADE*    CLOUDY    41  37  87 CALM      30.57F

$$

MDZ012-015-019>023-231700-
MARYLAND EASTERN SHORE

CITY           SKY/WX    TMP DP  RH WIND       PRES   REMARKS
OCEAN CITY     LGT RAIN  44  44 100 N10       30.53F FOG
SALISBURY      CLOUDY    45  45 100 NE7       30.52F FOG
BAY BRIDGE AP* DRIZZLE   41  41 100 CALM      30.56F FOG
CAMBRIDGE*     CLOUDY    43  43 100 VRB5      30.53F FOG
EASTON*        CLOUDY    45  41  87 E5        30.58S FOG

$$

MDZ017>025-231700-
SOUTHERN MARYLAND

CITY           SKY/WX    TMP DP  RH WIND       PRES   REMARKS
PATUXENT RIVER CLOUDY    43  43 100 N5        30.53F FOG
ST INIGOES     CLOUDY    44  43  96 NE3       30.53F FOG
LEONARDTOWN*   CLOUDY    43  41  93 CALM      30.55F

$$

MDZ003>005-231700-
NORTH CENTRAL MARYLAND

CITY           SKY/WX    TMP DP  RH WIND       PRES   REMARKS
FREDERICK*     CLOUDY    43  43 100 SE3       30.57F FOG
HAGERSTOWN APT CLOUDY    43  39  86 S13       30.50F
WESTMINSTER*   CLOUDY    39  39 100 SE10      30.50F FOG     WCI  32

$$

MDZ501>502-231700-
WESTERN MARYLAND

CITY           SKY/WX    TMP DP  RH WIND       PRES   REMARKS
OAKLAND*       CLOUDY    39  39 100 SE16      30.33F VSB<1/4 WCI  30
CUMBERLAND*    CLOUDY    43  41  93 SE6       30.50F

$$

VAZ025>031-231700-
SHENANDOAH VALLEY

CITY           SKY/WX    TMP DP  RH WIND       PRES   REMARKS
WINCHESTER*    CLOUDY    41  37  87 SE7       30.50F
FRONT ROYAL*   CLOUDY    45  41  87 CALM      30.48F
LURAY*         CLOUDY    43  43 100 CALM      30.47F FOG
NEW MARKET*    CLOUDY    44  43  97 CALM      30.47S
STAUNTON*      CLOUDY    45  42  89 S5        30.49F
WAYNESBORO*    CLOUDY    42  42  99 SE6       30.47S

$$

WVZ021-048>050-054>055-231700-
EASTERN WEST VIRGINIA PANHANDLE

CITY           SKY/WX    TMP DP  RH WIND       PRES   REMARKS
MARTINSBURG    CLOUDY    41  39  93 SE6       30.49F
PETERSBURG*    CLOUDY    44  41  89 CALM      30.44F

$$

VAZ036>039-050-231700-
CENTRAL FOOTHILLS

CITY           SKY/WX    TMP DP  RH WIND       PRES   REMARKS
CHARLOTTESVILL CLOUDY    44  42  93 CALM      30.51F FOG
CULPEPER*      CLOUDY    43  40  89 CALM      30.55S FOG
ORANGE*        CLOUDY    41  41 100 CALM      30.53F FOG
GORDONSVILLE*  CLOUDY    42  42 100 CALM      30.52F FOG
WARRENTON*     CLOUDY    43  39  86 SE3       30.53F FOG

$$

VAZ055>057-231700-
NORTH AND CENTRAL PIEDMONT

CITY           SKY/WX    TMP DP  RH WIND       PRES   REMARKS
FREDERICKSBRG* CLOUDY    43  43 100 CALM      30.54F
STAFFORD*      CLOUDY    43  43 100 CALM      30.59S FOG

$$

NCZ024-NYZ072-PAZ021-071-VAZ022-071-231700-
OTHER REGIONAL OBSERVATIONS

CITY           SKY/WX    TMP DP  RH WIND       PRES   REMARKS
NEW YORK CITY  CLOUDY    37  35  92 E6        30.63  WCI  32
PHILADELPHIA   CLOUDY    40  38  93 E8        30.57F WCI  34
PITTSBURGH     RAIN      48  48 100 NE5       30.23F FOG
ROANOKE        CLOUDY    46  44  93 E9        30.51F
RICHMOND       CLOUDY    45  43  93 E3        30.52F
RALEIGH        CLOUDY    54  51  90 E5        30.49F

$$

ANZ530>537-231700-
MARINE OBSERVATIONS

STATION/POSITION TIME  TEMP    WIND        PRES
                       AIR SEA DIR/SP/G
                 (UTC) (F)     (DEG/KT/KT) (MB)
THOMAS PT LIGHT  1600   40 42   20/  5/  6   N/A
BALT KEY BRIDGE  1536   40      60/  5/  6 1035.1F
COVE POINT       1536   41      30/  3/  4 1034.9F
LEWISETTA        1536   43 47   50/  4/  5 1034.2F
SOLOMONS ISLAND  1536   42 43   60/  2/  3 1033.9F
PINEY POINT      1548          110/  4/  5   N/A

$$




USA.gov is the U.S. government's official web portal to all federal, state and local government web resources and services.